Time,TemperatureF,DewpointF,PressureIn,WindDirection,WindDirectionDegrees,WindSpeedMPH,WindSpeedGustMPH,Humidity,HourlyPrecipIn,Conditions,Clouds,dailyrainin,SolarRadiationWatts/m^2,SoftwareType,DateUTC
2015-02-01 00:23:00,32.0,30.0,-100.00,SSE,167,2.0,4.0,94,0.00,,,0.06,0.000000,,2015-02-01 07:23:00,
2015-02-01 00:32:00,32.0,30.0,-100.00,SSE,167,2.0,4.0,94,0.00,,,0.06,0.000000,,2015-02-01 07:32:00,
2015-02-01 00:42:00,32.0,30.0,-100.00,SSE,167,2.0,4.0,94,0.00,,,0.06,0.000000,,2015-02-01 07:42:00,
2015-02-01 00:51:00,32.0,31.0,-100.00,SSW,211,3.0,6.0,95,0.00,,,0.05,0.000000,,2015-02-01 07:51:00,
2015-02-01 01:22:00,32.0,31.0,-100.00,SSW,211,3.0,6.0,95,0.00,,,0.05,0.000000,,2015-02-01 08:22:00,
2015-02-01 01:32:00,32.0,31.0,-100.00,SSW,211,3.0,6.0,95,0.00,,,0.05,0.000000,,2015-02-01 08:32:00,
2015-02-01 01:42:00,32.0,31.0,-100.00,SSW,211,3.0,6.0,95,0.00,,,0.05,0.000000,,2015-02-01 08:42:00,
2015-02-01 01:51:00,31.0,28.0,-100.00,South,186,2.0,12.0,90,0.00,,,-99.99,0.000000,,2015-02-01 08:51:00,
2015-02-01 02:22:00,31.0,28.0,-100.00,South,186,2.0,12.0,90,0.00,,,-99.99,0.000000,,2015-02-01 09:22:00,
2015-02-01 02:33:00,31.0,28.0,-100.00,South,186,2.0,12.0,90,0.00,,,-99.99,0.000000,,2015-02-01 09:33:00,
2015-02-01 02:44:00,31.0,28.0,-100.00,South,186,2.0,12.0,90,0.00,,,-99.99,0.000000,,2015-02-01 09:44:00,
2015-02-01 02:51:00,31.0,30.0,-100.00,NW,311,1.0,4.0,95,0.00,,,0.04,0.000000,,2015-02-01 09:51:00,
2015-02-01 03:23:00,31.0,30.0,-100.00,NW,311,1.0,4.0,95,0.00,,,0.04,0.000000,,2015-02-01 10:23:00,
2015-02-01 03:33:00,31.0,30.0,-100.00,NW,311,1.0,4.0,95,0.00,,,0.04,0.000000,,2015-02-01 10:33:00,
2015-02-01 03:43:00,31.0,30.0,-100.00,NW,311,1.0,4.0,95,0.00,,,0.04,0.000000,,2015-02-01 10:43:00,
2015-02-01 03:51:00,29.0,27.0,-100.00,SW,216,1.0,4.0,94,0.00,,,0.03,0.000000,,2015-02-01 10:51:00,
2015-02-01 04:22:00,29.0,27.0,-100.00,SW,216,1.0,4.0,94,0.00,,,0.03,0.000000,,2015-02-01 11:22:00,
2015-02-01 04:33:00,29.0,27.0,-100.00,SW,216,1.0,4.0,94,0.00,,,0.03,0.000000,,2015-02-01 11:33:00,
2015-02-01 04:43:00,29.0,27.0,-100.00,SW,216,1.0,4.0,94,0.00,,,0.03,0.000000,,2015-02-01 11:43:00,
2015-02-01 04:51:00,29.0,27.0,-100.00,WSW,248,1.0,5.0,94,0.00,,,0.03,0.000000,,2015-02-01 11:51:00,
2015-02-01 05:22:00,29.0,27.0,-100.00,WSW,248,1.0,5.0,94,0.00,,,0.03,0.000000,,2015-02-01 12:22:00,
2015-02-01 05:33:00,29.0,27.0,-100.00,WSW,248,1.0,5.0,94,0.00,,,0.03,0.000000,,2015-02-01 12:33:00,
2015-02-01 05:42:00,29.0,27.0,-100.00,WSW,248,1.0,5.0,94,0.00,,,0.03,0.000000,,2015-02-01 12:42:00,
2015-02-01 05:51:00,27.0,26.0,-100.00,North,-999,0.0,4.0,95,0.00,,,0.03,0.000000,,2015-02-01 12:51:00,
2015-02-01 06:22:00,27.0,26.0,-100.00,North,-999,0.0,4.0,95,0.00,,,0.03,0.000000,,2015-02-01 13:22:00,
2015-02-01 06:32:00,27.0,26.0,-100.00,North,-999,0.0,4.0,95,0.00,,,0.03,0.000000,,2015-02-01 13:32:00,
2015-02-01 06:42:00,27.0,26.0,-100.00,North,-999,0.0,4.0,95,0.00,,,0.03,0.000000,,2015-02-01 13:42:00,
2015-02-01 06:51:00,29.0,28.0,-100.00,WNW,285,4.0,5.0,96,0.00,,,0.01,0.000000,,2015-02-01 13:51:00,
2015-02-01 07:22:00,29.0,28.0,-100.00,WNW,285,4.0,5.0,96,0.00,,,0.01,0.000000,,2015-02-01 14:22:00,
2015-02-01 07:32:00,29.0,28.0,-100.00,WNW,285,4.0,5.0,96,0.00,,,0.01,0.000000,,2015-02-01 14:32:00,
2015-02-01 07:43:00,29.0,28.0,-100.00,WNW,285,4.0,5.0,96,0.00,,,0.01,0.000000,,2015-02-01 14:43:00,
2015-02-01 07:51:00,28.0,27.0,-100.00,North,355,1.0,4.0,94,0.00,,,0.00,2.000000,,2015-02-01 14:51:00,
2015-02-01 08:22:00,28.0,27.0,-100.00,North,355,1.0,4.0,94,0.00,,,0.00,2.000000,,2015-02-01 15:22:00,
2015-02-01 08:33:00,28.0,27.0,-100.00,North,355,1.0,4.0,94,0.00,,,0.00,2.000000,,2015-02-01 15:33:00,
2015-02-01 08:44:00,28.0,27.0,-100.00,North,355,1.0,4.0,94,0.00,,,0.00,2.000000,,2015-02-01 15:44:00,
2015-02-01 08:51:00,32.0,29.0,-100.00,SE,137,2.0,4.0,90,0.00,,,0.00,89.000000,,2015-02-01 15:51:00,
2015-02-01 09:24:00,32.0,29.0,-100.00,SE,137,2.0,4.0,90,0.00,,,0.00,89.000000,,2015-02-01 16:24:00,
2015-02-01 09:34:00,32.0,29.0,-100.00,SE,137,2.0,4.0,90,0.00,,,0.00,89.000000,,2015-02-01 16:34:00,
2015-02-01 09:44:00,32.0,29.0,-100.00,SE,137,2.0,4.0,90,0.00,,,0.00,89.000000,,2015-02-01 16:44:00,
2015-02-01 09:51:00,36.0,32.0,-100.00,NE,40,2.0,6.0,85,0.00,,,0.00,299.000000,,2015-02-01 16:51:00,
2015-02-01 10:23:00,36.0,32.0,-100.00,NE,40,2.0,6.0,85,0.00,,,0.00,299.000000,,2015-02-01 17:23:00,
2015-02-01 10:33:00,36.0,32.0,-100.00,NE,40,2.0,6.0,85,0.00,,,0.00,299.000000,,2015-02-01 17:33:00,
2015-02-01 10:43:00,36.0,32.0,-100.00,NE,40,2.0,6.0,85,0.00,,,0.00,299.000000,,2015-02-01 17:43:00,
2015-02-01 10:51:00,38.0,32.0,-100.00,NNE,26,2.0,5.0,80,0.00,,,0.00,445.000000,,2015-02-01 17:51:00,
2015-02-01 11:23:00,38.0,32.0,-100.00,NNE,26,2.0,5.0,80,0.00,,,0.00,445.000000,,2015-02-01 18:23:00,
2015-02-01 11:32:00,38.0,32.0,-100.00,NNE,26,2.0,5.0,80,0.00,,,0.00,445.000000,,2015-02-01 18:32:00,
2015-02-01 11:42:00,38.0,32.0,-100.00,NNE,26,2.0,5.0,80,0.00,,,0.00,445.000000,,2015-02-01 18:42:00,